Weather History for Aulavik National Park, NT

Change the Weather History Date:

Wednesday, May 22, 2013

  Actual Average Record
Temperature  
Mean Temperature 18 °F -  
Max Temperature 28 °F - - ()
Min Temperature 9 °F - - ()
Degree Days  
Heating Degree Days 46    
Moisture  
Dew Point 18 °F    
Average Humidity 91    
Maximum Humidity 100    
Minimum Humidity 76    
Precipitation  
Precipitation 0.19 in - - ()
Sea Level Pressure  
Sea Level Pressure 30.49 in    
Wind  
Wind Speed - ()    
Max Wind Speed -    
Max Gust Speed -    
T = Trace of Precipitation, MM = Missing Value Source: Averaged Metar Reports

Daily Weather History Graph

Daily Weather History Graph

Search for Another Location

Airport:

Trip Planner

Search our weather history database for the weather conditions in past years. The results will help you decide how hot, cold, wet, or windy it might be!

Date:

Astronomy

Dec. 31, 1969 Rise Set
Actual Time Sun does not rise Sun does not rise
Civil Twilight Sun does not rise Sun does not rise
Nautical Twilight Sun does not rise Sun does not rise
Astronomical Twilight Sun does not rise Sun does not rise
Moon 10:17 PM MDT (5/22) 2:27 AM MDT (5/22)
Length of Visible Light 24h 00m
Length of Day
24h 00m
Waxing Gibbous, 92% of the Moon is Illuminated
May 22
Waxing Gibbous
May 24
Full
May 31
Last Quarter
Jun 8
New
Jun 16
First Quarter

Hourly Weather History & Observations

Time (MDT) Temp. Dew Point Humidity Pressure Visibility Wind Dir Wind Speed Gust Speed Precip Events Conditions
12:00 AM 15 °F 11 °F 76% 30.61 in - Calm Calm - -  
12:00 AM 14.0 °F 10.4 °F 86% 30.61 in - North - - N/A   Unknown
1:00 AM 15.8 °F 10.4 °F 79% 30.61 in - North - - N/A   Unknown
2:00 AM 14.0 °F 10.4 °F 86% 30.60 in - North - - N/A   Unknown
3:00 AM 10.4 °F 6.8 °F 85% 30.59 in - North - - N/A   Unknown
4:00 AM 10.4 °F 8.6 °F 92% 30.58 in - North - - N/A   Unknown
5:00 AM 12.2 °F 8.6 °F 85% 30.58 in - North - - N/A   Unknown
6:00 AM 14 °F 12 °F 86% 30.56 in - Calm Calm - -  
6:00 AM 14.0 °F 12.2 °F 93% 30.56 in - North - - N/A   Unknown
7:00 AM 14.0 °F 14.0 °F 100% 30.55 in - North - - N/A   Unknown
8:00 AM 14.0 °F 14.0 °F 100% 30.54 in - North - - N/A   Unknown
9:00 AM 15.8 °F 15.8 °F 100% 30.51 in - North - - N/A   Unknown
10:00 AM 19.4 °F 17.6 °F 93% 30.50 in - North - - N/A   Unknown
11:00 AM 19.4 °F 17.6 °F 93% 30.48 in - North - - N/A   Unknown
12:00 PM 20 °F 19 °F 94% 30.46 in - Calm Calm - -  
12:00 PM 20.5 °F 19.0 °F 94% 30.46 in - North - - N/A   Unknown
1:00 PM 21.2 °F 21.2 °F 100% 30.45 in - North - - N/A   Unknown
2:00 PM 23.0 °F 21.2 °F 93% 30.44 in - North - - N/A   Unknown
3:00 PM 24.8 °F 23.0 °F 93% 30.44 in - North - - N/A   Unknown
4:00 PM 24.8 °F 23.0 °F 93% 30.42 in - North - - N/A   Unknown
5:00 PM 26.6 °F 23.0 °F 86% 30.41 in - North - - N/A   Unknown
6:00 PM 27 °F 25 °F 89% 30.40 in - Calm Calm - -  
6:00 PM 26.6 °F 24.8 °F 93% 30.40 in - North - - N/A   Unknown
7:00 PM 26.6 °F 24.8 °F 93% 30.40 in - North - - N/A   Unknown
8:00 PM 28.4 °F 24.8 °F 86% 30.40 in - North - - N/A   Unknown
9:00 PM 26.6 °F 24.8 °F 93% 30.39 in - North - - N/A   Unknown
10:00 PM 26.6 °F 24.8 °F 93% 30.38 in - North - - N/A   Unknown
11:00 PM 24.8 °F 24.8 °F 100% 30.39 in - North - - N/A   Unknown